Location: American Medical Response
(33.3472°N, 96.5511°W)
Time: 05:34:18
(UTC+00:00)

H-2A R/B - Pass Details

Date: 05 July 2022
Orbit: 576 x 652 km, 98.5° (Epoch: 17 August)

Event Time Altitude Azimuth Distance (km) Brightness Sun altitude
Rises 03:41:23 0° 353° (N) 2,948 6.4 -20.9°
Reaches altitude 10° 03:44:09 10° 335° (NNW) 2,045 5.8 -21.2°
Maximum altitude 03:47:10 18° 292° (WNW) 1,573 4.9 -21.7°
Drops below altitude 10° 03:50:13 10° 249° (WSW) 2,051 4.9 -22.1°
Sets 03:53:00 0° 231° (SW) 2,960 5.6 -22.4°
